Theta_e
346 352 359 361 358 361 360 361 363 364 364 363 363 362 361 361 360 361 361 361 360 361 362 362 362 360 359 361 360 360 361 361 361 360 359 359 357 358 357 358 360 354 357
348 353 361 360 358 359 359 361 362 363 363 363 363 361 360 360 359 361 361 362 361 362 362 361 363 358 356 360 361 360 361 361 361 361 361 361 359 358 356 355 362 355 357
350 354 358 363 358 358 360 361 362 362 363 361 362 361 361 361 361 361 362 362 359 362 362 362 362 361 358 360 361 361 361 360 360 361 360 353 354 356 359 360 361 360 358
350 353 354 364 359 359 360 361 361 362 361 360 361 361 361 360 361 362 361 361 363 363 363 363 362 361 361 361 361 360 360 358 358 357 356 351 351 357 359 359 359 358 358
348 353 360 362 359 360 361 361 361 360 361 360 360 360 360 360 361 362 362 363 362 361 361 362 361 362 362 361 359 360 359 359 357 359 358 355 353 358 359 359 358 359 358
352 355 361 361 358 359 361 361 361 361 360 360 361 362 363 362 361 363 362 363 362 363 362 362 361 361 360 361 360 360 355 357 358 353 352 357 355 359 359 356 358 358 359
351 355 357 362 359 360 360 361 360 360 362 362 361 362 364 362 362 362 361 362 362 362 361 360 359 359 359 360 360 359 356 356 357 356 353 356 358 360 356 358 359 358 358
350 352 355 358 360 361 360 361 361 361 361 361 363 363 362 364 361 362 363 362 362 361 360 360 358 358 358 361 361 358 356 360 354 356 358 357 360 359 351 353 358 358 358
351 352 354 356 361 362 361 363 361 361 362 363 362 363 363 363 363 363 362 362 361 361 361 359 361 361 363 363 360 357 355 359 354 353 354 354 360 355 352 349 356 357 357
347 351 353 353 357 358 358 362 363 363 363 361 363 363 363 363 362 362 362 362 361 362 361 360 359 360 362 360 359 359 356 356 351 350 354 354 361 358 356 355 357 357 354
348 350 352 355 357 359 362 361 364 364 364 362 362 363 362 363 361 362 361 362 361 360 360 358 357 360 361 361 358 358 357 356 357 351 354 360 359 357 358 357 358 357 357
346 348 352 353 353 353 353 362 364 360 362 363 362 363 364 360 360 357 363 362 363 361 360 357 356 358 357 358 356 358 357 357 354 354 351 359 356 357 357 357 358 359 358
348 350 351 353 355 351 354 355 358 360 355 361 362 367 361 360 354 355 358 359 361 359 360 356 355 355 355 356 357 355 357 355 354 357 355 357 356 356 357 357 357 357 358
346 349 351 354 355 353 353 354 354 354 354 355 360 363 366 361 356 356 358 359 360 352 352 352 354 356 352 355 353 351 348 355 353 349 345 347 353 355 355 356 357 357 358
345 348 350 355 358 357 358 354 353 353 354 354 356 360 356 357 360 356 357 359 360 363 357 353 360 359 356 356 357 357 357 354 356 349 348 349 346 352 352 355 355 356 357
345 348 351 354 360 358 358 358 352 350 352 355 354 359 363 360 356 354 354 360 364 367 357 359 357 357 357 356 358 356 356 356 359 355 350 349 351 351 352 351 355 354 357
344 347 350 353 356 358 358 358 354 351 349 353 356 366 361 362 362 364 354 360 359 362 360 361 362 360 358 359 352 356 357 356 361 356 354 351 351 353 352 351 353 354 355
346 346 350 349 352 354 355 356 353 354 353 354 356 361 364 365 368 365 364 365 361 363 360 361 361 364 355 360 363 352 355 356 357 358 357 354 351 348 351 353 352 353 353
352 352 352 353 352 356 359 358 358 359 358 358 360 363 366 364 366 365 360 364 363 365 363 363 359 363 363 355 355 361 356 355 361 362 360 360 354 352 352 355 352 350 351
355 356 356 356 357 359 359 361 359 358 360 359 364 361 369 363 364 364 358 364 363 357 360 357 365 359 366 357 353 355 356 359 361 361 362 358 358 356 350 355 353 348 350
354 356 359 358 362 359 357 355 354 352 357 359 361 366 367 367 366 369 365 363 363 362 362 364 361 362 361 363 363 353 354 355 357 358 358 357 358 354 355 354 354 351 348
351 355 360 361 362 362 359 359 356 355 354 357 360 368 368 368 368 366 372 363 365 360 363 363 362 355 354 359 358 348 351 352 355 354 355 356 356 354 355 356 354 355 351
349 354 357 363 366 367 369 362 361 361 360 356 356 357 362 368 367 367 367 367 365 364 356 364 363 363 352 354 360 351 340 344 346 355 355 358 358 356 354 357 356 354 351
347 352 357 362 364 366 368 367 371 357 353 353 356 356 357 366 365 366 368 371 369 362 369 364 366 363 363 355 357 356 356 353 341 338 352 352 355 355 355 357 356 356 361
346 349 354 362 368 371 371 372 362 362 356 356 356 362 365 365 365 364 366 369 369 366 371 368 368 372 368 357 360 354 359 360 355 352 342 345 351 352 353 355 354 358 359
346 349 352 360 366 368 368 367 369 368 364 357 359 355 356 357 359 368 365 370 372 369 371 366 368 370 366 364 362 364 359 352 350 353 346 347 347 352 356 357 361 355 358
Wind_Speed
18 16 10 10 9 9 9 9 10 11 12 12 9 7 6 6 7 7 9 9 10 10 12 12 13 13 11 11 11 11 12 11 11 12 13 13 11 10 8 9 13 15 13
21 17 13 11 10 9 8 8 9 10 10 10 9 7 7 7 7 8 9 11 10 11 12 12 14 13 12 11 10 12 11 11 11 12 13 12 9 8 4 5 12 13 11
21 17 15 10 10 8 7 7 8 8 9 8 7 6 7 8 8 10 10 10 10 12 11 12 12 11 13 11 12 10 9 10 11 13 18 12 10 6 9 12 14 11 11
20 17 16 10 10 7 6 7 5 8 10 8 7 8 8 8 9 9 9 10 10 10 12 12 12 11 11 10 11 9 6 4 7 6 5 3 12 7 8 10 10 10 10
13 19 17 11 9 7 5 6 6 8 8 8 8 9 9 10 9 11 10 10 11 10 12 11 11 11 11 10 10 9 5 4 5 5 8 6 10 9 9 9 9 10 9
20 17 16 11 9 7 7 6 7 8 8 8 10 10 11 10 11 11 10 10 9 10 9 10 9 9 7 7 7 7 3 4 8 2 7 8 13 11 7 3 9 8 10
11 17 14 10 9 8 7 7 7 8 8 8 9 11 12 10 10 12 10 8 9 10 10 9 7 5 5 7 7 6 3 3 7 0 9 2 10 8 7 6 7 7 7
13 16 15 12 10 9 8 8 9 9 9 8 10 12 10 11 9 9 9 10 10 9 8 8 7 4 5 7 7 6 4 8 2 5 5 9 9 7 6 7 6 7 6
13 12 15 12 12 9 8 9 10 9 9 9 10 10 10 10 9 9 8 7 8 9 7 7 7 8 10 9 9 6 3 8 1 3 7 7 7 7 6 7 6 6 5
8 9 15 13 12 10 9 9 9 10 9 10 10 10 10 10 9 8 8 7 7 7 6 6 6 7 9 9 7 6 6 8 3 7 9 8 8 5 6 6 6 6 8
14 10 13 11 10 9 11 9 10 10 10 12 10 9 11 5 10 13 9 7 6 6 6 5 4 6 9 10 6 4 5 5 5 4 6 11 5 4 6 6 6 5 6
11 10 12 10 13 10 8 11 8 10 10 8 8 10 6 4 6 8 11 8 8 7 7 5 4 6 4 1 4 5 4 4 2 7 6 9 3 3 4 4 7 7 6
13 10 11 8 8 10 9 7 7 8 6 7 5 2 6 2 5 7 6 6 8 10 8 9 7 4 2 4 4 4 4 2 4 3 6 6 2 3 4 4 6 7 7
11 11 11 13 7 9 7 7 4 4 5 8 6 7 4 2 3 1 3 5 5 4 4 6 3 6 3 1 4 3 5 4 5 3 3 2 5 6 4 4 4 7 7
12 12 13 12 9 5 5 4 5 5 6 7 6 5 0 5 3 3 3 4 1 1 3 2 5 5 1 2 3 5 5 4 5 5 3 9 3 8 4 5 5 5 8
11 11 13 12 10 9 6 4 4 5 4 5 5 8 2 4 2 4 3 4 1 2 7 3 5 4 4 6 2 5 6 7 7 9 7 8 15 12 7 8 7 7 8
9 10 12 11 12 9 7 7 5 5 7 6 5 9 5 5 2 7 4 3 3 4 4 7 5 5 4 4 4 4 8 10 9 12 10 9 11 15 15 15 9 8 8
10 11 11 9 12 10 9 7 6 5 5 5 5 8 9 7 6 7 3 1 4 6 5 5 3 2 5 6 6 5 8 11 7 8 8 8 7 9 15 18 16 11 8
10 11 9 7 7 10 6 6 7 6 5 4 4 2 9 6 6 3 6 4 5 2 2 3 2 3 3 4 8 7 8 9 4 7 9 10 7 12 7 16 17 12 13
12 11 11 9 8 8 8 5 6 6 5 3 3 1 8 6 6 7 6 4 2 7 4 6 5 5 4 6 8 5 8 7 3 6 9 9 10 11 8 11 11 10 18
12 13 13 12 11 9 7 8 6 6 5 4 3 6 4 6 6 6 5 4 5 6 2 6 8 6 5 3 4 7 7 3 13 9 8 8 9 10 12 10 7 9 10
15 14 13 13 12 11 8 6 5 5 5 6 4 7 7 6 8 6 6 5 3 5 4 6 6 7 6 8 4 7 5 1 3 3 10 5 5 8 10 13 14 13 11
15 15 15 15 14 13 11 8 6 5 4 5 5 6 9 9 9 10 7 7 4 5 7 6 7 7 7 6 6 3 6 1 5 6 6 4 8 5 4 9 13 11 10
16 15 15 15 15 14 13 10 10 8 8 8 6 7 3 8 8 9 9 8 7 6 6 6 6 7 5 7 5 3 6 5 7 5 5 6 2 7 11 6 9 10 13
16 15 15 15 15 14 14 12 9 10 7 6 6 4 5 5 8 9 9 8 8 8 7 7 7 6 6 7 7 9 4 2 5 3 6 5 6 6 5 9 7 8 12
17 15 15 15 14 15 14 15 12 9 9 7 6 5 7 8 10 12 10 8 8 9 8 7 7 8 9 8 8 6 6 7 2 5 5 9 8 6 6 6 6 7 6
Wind_Direction
148 120 124 115 103 89 95 87 92 102 117 126 130 116 116 96 91 98 94 99 102 101 102 103 102 100 105 99 107 104 100 98 103 105 107 106 110 118 126 144 169 105 117
118 123 129 120 101 94 89 95 101 113 124 128 129 132 117 106 100 88 100 101 103 100 100 106 104 103 107 104 107 105 101 112 120 123 116 109 110 107 123 124 92 110 119
118 125 132 121 103 99 88 105 108 111 129 136 133 126 123 111 106 98 108 110 108 111 112 108 107 108 109 112 107 109 119 140 148 158 167 134 104 103 89 92 101 124 123
121 142 130 122 107 100 89 95 112 127 125 125 117 121 118 115 105 107 114 107 102 104 110 108 106 100 104 112 107 114 133 143 161 187 224 124 112 121 99 105 119 122 126
123 117 115 124 116 110 106 108 113 97 113 121 116 121 123 116 124 117 103 114 107 116 114 110 112 111 96 113 105 105 129 192 205 238 241 28 116 109 126 129 135 141 164
100 106 117 128 126 123 112 118 106 127 122 126 122 125 122 121 116 112 105 107 113 105 104 113 118 120 110 97 103 112 145 256 290 140 69 71 74 118 129 154 97 108 115
117 118 127 132 129 123 114 118 112 115 132 128 125 124 117 125 119 115 113 121 106 107 97 101 97 100 123 110 109 117 170 264 291 233 82 34 100 127 125 115 122 119 123
135 119 131 133 130 119 114 117 115 118 121 113 105 110 112 113 118 110 121 122 116 121 99 90 74 70 157 136 130 122 217 278 119 115 104 85 108 135 132 141 130 134 142
87 114 133 127 131 116 107 117 117 119 118 118 115 107 123 120 122 126 125 128 132 127 105 94 81 78 111 134 136 133 209 273 158 46 122 115 120 138 140 146 157 144 142
138 166 128 162 143 143 128 125 124 124 129 127 123 127 131 127 138 138 145 143 130 135 121 108 95 105 114 129 140 160 215 267 217 170 92 105 127 154 157 166 172 173 169
184 151 140 147 167 132 139 134 146 145 155 145 146 155 152 159 179 153 104 122 140 138 136 139 135 172 156 138 142 178 224 248 343 61 101 111 112 179 177 187 201 191 190
149 172 146 170 145 161 149 146 182 153 173 192 163 176 140 179 83 112 125 151 155 162 163 162 202 233 127 160 117 185 223 152 50 20 75 89 109 223 180 194 202 205 199
152 148 153 153 168 155 113 194 175 157 151 126 156 10 151 139 187 172 134 163 185 186 191 193 187 241 357 44 107 340 11 226 135 73 59 27 343 239 217 202 207 209 206
163 159 172 149 186 167 148 222 133 121 170 163 132 179 182 187 130 125 112 173 225 157 157 211 195 111 248 88 115 284 318 318 81 103 114 335 341 325 273 241 234 219 217
165 159 167 144 162 155 182 181 153 132 230 120 153 179 152 167 152 187 136 119 198 232 323 156 67 120 288 282 208 274 262 266 147 162 190 200 229 257 279 251 231 230 230
162 162 137 154 163 170 190 177 171 193 204 123 165 136 194 312 175 156 206 136 227 131 197 170 160 189 185 232 210 222 250 244 179 213 179 199 207 218 209 248 244 234 227
175 156 141 169 165 170 170 187 212 194 167 176 169 142 198 248 163 302 223 135 142 272 245 183 172 183 205 228 229 224 231 244 225 210 195 213 197 220 215 225 223 227 226
154 152 163 187 169 176 176 180 213 214 174 204 190 164 180 208 179 252 260 122 193 213 175 267 200 171 259 247 223 227 242 245 213 216 208 193 200 197 210 217 234 256 252
143 156 170 181 183 149 155 181 230 175 250 190 174 222 157 215 227 212 270 219 253 296 305 228 61 179 226 275 273 212 249 277 219 214 214 219 197 198 193 201 209 235 255
158 162 170 179 168 170 161 223 218 200 211 190 219 207 154 216 210 194 223 276 268 262 262 310 340 296 233 241 293 250 240 227 211 200 208 211 183 204 194 218 197 203 233
179 176 178 187 174 183 193 194 210 226 182 192 222 201 240 228 249 215 247 198 212 243 297 259 255 213 296 250 264 280 280 175 259 189 190 192 185 221 195 213 207 198 215
183 189 187 188 185 200 195 218 233 218 214 197 194 178 206 211 251 251 256 282 222 284 211 249 276 299 273 224 236 297 282 207 250 222 221 173 209 195 195 198 215 203 216
192 190 193 195 189 197 220 201 200 249 263 252 236 234 215 212 221 228 261 265 273 260 272 203 236 240 287 292 189 243 292 182 305 189 170 171 175 187 193 209 208 205 191
192 193 193 196 201 197 203 209 209 213 219 212 212 225 240 186 218 226 234 209 232 260 296 265 208 267 282 299 303 240 233 276 292 316 190 217 176 199 194 203 213 207 193
187 187 188 191 197 206 197 230 198 224 226 236 234 224 227 264 217 232 239 239 236 237 235 250 267 266 247 266 286 293 330 294 272 282 281 283 192 234 270 205 205 222 188
180 190 185 183 196 203 202 206 230 222 229 252 202 241 230 222 206 206 231 233 239 254 257 266 263 264 258 260 267 282 263 264 225 233 234 261 251 267 272 287 198 206 166